GFA530 OBBI-OTHH

Flight info

Callsign GFA530
Flight time 0h 27m
Altitude 11000
Route BHR345/30R LADN1E LADNA LADNA1
Aircraft A321/M-SDE3FGHIRWY/LB1

Departure

Time 2026-05-08 17:12
Airport Bahrain International Airport (OBBI)

Arrival

Time 2026-05-08 17:39
Airport Hamad International Airport (OTHH)
Time Latitude Longitude Altitude Speed Heading
2026-05-08 16:43 26.26590 50.63443 25 ft 0 kts 213°
2026-05-08 17:01 26.26597 50.63447 21 ft 4 kts 213°
2026-05-08 17:01 26.26618 50.63462 22 ft 4 kts 213°
2026-05-08 17:02 26.26640 50.63478 22 ft 4 kts 213°
2026-05-08 17:02 26.26659 50.63491 21 ft 4 kts 219°
2026-05-08 17:02 26.26673 50.63511 24 ft 4 kts 270°
2026-05-08 17:02 26.26665 50.63534 23 ft 4 kts 310°
2026-05-08 17:03 26.26651 50.63552 24 ft 1 kts 302°
2026-05-08 17:03 26.26651 50.63553 24 ft 0 kts 302°
2026-05-08 17:05 26.26656 50.63543 24 ft 3 kts 302°
2026-05-08 17:06 26.26670 50.63518 23 ft 5 kts 301°
2026-05-08 17:06 26.26692 50.63477 21 ft 7 kts 301°
2026-05-08 17:06 26.26725 50.63420 21 ft 10 kts 304°
2026-05-08 17:06 26.26776 50.63368 21 ft 11 kts 347°
2026-05-08 17:07 26.26840 50.63415 19 ft 13 kts 78°
2026-05-08 17:07 26.26795 50.63508 19 ft 15 kts 124°
2026-05-08 17:07 26.26738 50.63606 22 ft 15 kts 123°
2026-05-08 17:07 26.26678 50.63709 23 ft 16 kts 123°
2026-05-08 17:08 26.26613 50.63821 21 ft 18 kts 123°
2026-05-08 17:08 26.26545 50.63942 23 ft 19 kts 122°
2026-05-08 17:08 26.26469 50.64074 21 ft 21 kts 122°
2026-05-08 17:08 26.26386 50.64218 20 ft 23 kts 122°
2026-05-08 17:09 26.26298 50.64370 19 ft 24 kts 126°
2026-05-08 17:09 26.26215 50.64511 20 ft 20 kts 122°
2026-05-08 17:09 26.26165 50.64596 20 ft 11 kts 123°
2026-05-08 17:09 26.26123 50.64676 19 ft 13 kts 119°
2026-05-08 17:10 26.26073 50.64764 20 ft 14 kts 126°
2026-05-08 17:10 26.26020 50.64848 21 ft 11 kts 123°
2026-05-08 17:10 26.26007 50.64912 21 ft 9 kts 68°
2026-05-08 17:10 26.26056 50.64969 19 ft 12 kts 35°
2026-05-08 17:11 26.26136 50.64993 19 ft 13 kts 328°
2026-05-08 17:11 26.26260 50.64793 17 ft 67 kts 303°
2026-05-08 17:11 26.26649 50.64125 17 ft 135 kts 303°
2026-05-08 17:11 26.27242 50.63125 368 ft 158 kts 301°
2026-05-08 17:12 26.27846 50.62108 1076 ft 156 kts 316°
2026-05-08 17:12 26.28782 50.61575 1583 ft 154 kts 343°
2026-05-08 17:12 26.29829 50.61338 2102 ft 154 kts 347°
2026-05-08 17:12 26.30885 50.61147 2627 ft 154 kts 348°
2026-05-08 17:13 26.31941 50.60954 3139 ft 155 kts 348°
2026-05-08 17:13 26.33083 50.60968 3299 ft 181 kts 14°
2026-05-08 17:13 26.34160 50.61900 3433 ft 216 kts 47°
2026-05-08 17:13 26.34657 50.63618 3583 ft 258 kts 85°
2026-05-08 17:14 26.34488 50.65710 3878 ft 281 kts 92°
2026-05-08 17:14 26.34189 50.67890 4476 ft 287 kts 95°
2026-05-08 17:14 26.33847 50.70093 5178 ft 289 kts 96°
2026-05-08 17:14 26.33493 50.72336 5924 ft 291 kts 97°
2026-05-08 17:15 26.33152 50.74557 6616 ft 292 kts 98°
2026-05-08 17:15 26.32822 50.76796 7302 ft 294 kts 97°
2026-05-08 17:15 26.32505 50.78994 8280 ft 279 kts 97°
2026-05-08 17:15 26.32206 50.81103 9170 ft 274 kts 98°
2026-05-08 17:16 26.31905 50.83261 9533 ft 293 kts 99°
2026-05-08 17:16 26.31581 50.85594 9688 ft 316 kts 99°
2026-05-08 17:16 26.31234 50.88095 9814 ft 338 kts 99°
2026-05-08 17:16 26.30863 50.90766 9949 ft 358 kts 99°
2026-05-08 17:17 26.30426 50.93544 10305 ft 367 kts 105°
2026-05-08 17:17 26.29535 50.96218 10787 ft 370 kts 117°
2026-05-08 17:17 26.28292 50.98731 10957 ft 371 kts 120°
2026-05-08 17:17 26.27029 51.01226 10998 ft 369 kts 121°
2026-05-08 17:18 26.25770 51.03708 10999 ft 368 kts 120°
2026-05-08 17:18 26.24514 51.06191 10999 ft 368 kts 120°
2026-05-08 17:18 26.23261 51.08679 10996 ft 368 kts 121°
2026-05-08 17:18 26.22012 51.11161 10999 ft 367 kts 121°
2026-05-08 17:19 26.20762 51.13646 11001 ft 366 kts 120°
2026-05-08 17:19 26.19518 51.16121 10996 ft 367 kts 121°
2026-05-08 17:19 26.18272 51.18599 10996 ft 368 kts 120°
2026-05-08 17:19 26.17022 51.21081 10997 ft 367 kts 120°
2026-05-08 17:20 26.15770 51.23558 10996 ft 367 kts 120°
2026-05-08 17:20 26.14522 51.26033 10997 ft 367 kts 120°
2026-05-08 17:20 26.13275 51.28515 10996 ft 367 kts 120°
2026-05-08 17:20 26.12029 51.30991 10994 ft 367 kts 121°
2026-05-08 17:21 26.10780 51.33470 10997 ft 367 kts 120°
2026-05-08 17:21 26.09513 51.35977 11001 ft 367 kts 121°
2026-05-08 17:21 26.08685 51.37614 11001 ft 367 kts 120°
2026-05-08 17:21 26.07436 51.40082 11004 ft 366 kts 121°
2026-05-08 17:22 26.06189 51.42553 11004 ft 366 kts 120°
2026-05-08 17:22 26.04953 51.45028 11004 ft 366 kts 120°
2026-05-08 17:22 26.03573 51.47394 11004 ft 364 kts 133°
2026-05-08 17:22 26.01653 51.49188 10999 ft 360 kts 152°
2026-05-08 17:23 25.99349 51.50236 11002 ft 359 kts 164°
2026-05-08 17:23 25.96957 51.51034 11000 ft 359 kts 165°
2026-05-08 17:23 25.94566 51.51829 11002 ft 359 kts 165°
2026-05-08 17:23 25.92163 51.52626 10995 ft 368 kts 165°
2026-05-08 17:24 25.89641 51.53457 10992 ft 388 kts 165°
2026-05-08 17:24 25.86995 51.54330 10988 ft 401 kts 165°
2026-05-08 17:24 25.84307 51.55221 10988 ft 405 kts 165°
2026-05-08 17:24 25.81606 51.56120 10988 ft 405 kts 165°
2026-05-08 17:25 25.78903 51.57021 10989 ft 406 kts 165°
2026-05-08 17:25 25.76202 51.57919 10985 ft 405 kts 165°
2026-05-08 17:25 25.73503 51.58815 10985 ft 405 kts 165°
2026-05-08 17:25 25.70809 51.59710 10986 ft 404 kts 165°
2026-05-08 17:26 25.68115 51.60608 10986 ft 404 kts 165°
2026-05-08 17:26 25.65421 51.61504 10978 ft 404 kts 165°
2026-05-08 17:26 25.62687 51.62409 10979 ft 405 kts 165°
2026-05-08 17:26 25.59986 51.63301 10980 ft 405 kts 165°
2026-05-08 17:27 25.57284 51.64194 10977 ft 405 kts 165°
2026-05-08 17:27 25.54583 51.65084 10975 ft 405 kts 165°
2026-05-08 17:27 25.51882 51.65974 10976 ft 405 kts 165°
2026-05-08 17:27 25.49179 51.66867 10974 ft 406 kts 165°
2026-05-08 17:28 25.46494 51.67757 10969 ft 395 kts 165°
2026-05-08 17:28 25.43954 51.68602 10971 ft 368 kts 165°
2026-05-08 17:28 25.41581 51.69390 10973 ft 345 kts 165°
2026-05-08 17:28 25.39354 51.70128 10970 ft 324 kts 165°
2026-05-08 17:29 25.37257 51.70824 10967 ft 306 kts 165°
2026-05-08 17:29 25.35242 51.71490 10976 ft 301 kts 165°
2026-05-08 17:29 25.33239 51.72149 10921 ft 299 kts 165°
2026-05-08 17:29 25.31250 51.72802 10512 ft 298 kts 165°
2026-05-08 17:30 25.29254 51.73453 10047 ft 300 kts 165°
2026-05-08 17:30 25.27241 51.74110 9583 ft 303 kts 165°
2026-05-08 17:30 25.25222 51.74774 9161 ft 302 kts 165°
2026-05-08 17:30 25.23221 51.75432 8788 ft 299 kts 165°
2026-05-08 17:31 25.21237 51.76084 8385 ft 297 kts 165°
2026-05-08 17:31 25.19256 51.76736 7958 ft 297 kts 165°
2026-05-08 17:31 25.17282 51.77388 7566 ft 296 kts 165°
2026-05-08 17:31 25.15312 51.78038 7189 ft 295 kts 165°
2026-05-08 17:32 25.13352 51.78682 6831 ft 293 kts 166°
2026-05-08 17:32 25.11411 51.79317 6513 ft 289 kts 164°
2026-05-08 17:32 25.09470 51.79842 6151 ft 286 kts 178°
2026-05-08 17:32 25.07565 51.79542 6010 ft 270 kts 205°
2026-05-08 17:33 25.06022 51.78450 5881 ft 254 kts 229°
2026-05-08 17:33 25.05071 51.76884 5663 ft 243 kts 251°
2026-05-08 17:33 25.04459 51.75154 5213 ft 243 kts 254°
2026-05-08 17:33 25.04325 51.73385 4779 ft 224 kts 288°
2026-05-08 17:34 25.05028 51.71944 4244 ft 210 kts 319°
2026-05-08 17:34 25.06243 51.71155 3858 ft 202 kts 340°
2026-05-08 17:34 25.07534 51.70594 3590 ft 191 kts 339°
2026-05-08 17:34 25.08718 51.70075 3343 ft 180 kts 339°
2026-05-08 17:35 25.09864 51.69572 3122 ft 174 kts 339°
2026-05-08 17:35 25.10977 51.69083 2910 ft 171 kts 339°
2026-05-08 17:35 25.12073 51.68602 2697 ft 168 kts 339°
2026-05-08 17:35 25.13143 51.68132 2484 ft 164 kts 339°
2026-05-08 17:36 25.14180 51.67677 2273 ft 152 kts 339°
2026-05-08 17:36 25.15128 51.67260 2087 ft 143 kts 338°
2026-05-08 17:36 25.16038 51.66860 1916 ft 139 kts 338°
2026-05-08 17:36 25.16928 51.66469 1739 ft 137 kts 338°
2026-05-08 17:37 25.17813 51.66080 1579 ft 136 kts 338°
2026-05-08 17:37 25.18685 51.65697 1390 ft 135 kts 337°
2026-05-08 17:37 25.19558 51.65313 1226 ft 134 kts 338°
2026-05-08 17:37 25.20424 51.64932 1054 ft 134 kts 338°
2026-05-08 17:38 25.21293 51.64551 884 ft 135 kts 338°
2026-05-08 17:38 25.22178 51.64165 713 ft 137 kts 337°
2026-05-08 17:38 25.23062 51.63776 534 ft 137 kts 334°
2026-05-08 17:38 25.23951 51.63382 389 ft 137 kts 333°
2026-05-08 17:39 25.24827 51.62996 224 ft 135 kts 335°
2026-05-08 17:39 25.25702 51.62619 49 ft 132 kts 336°
2026-05-08 17:39 25.26404 51.62313 23 ft 71 kts 339°
2026-05-08 17:39 25.26662 51.62201 21 ft 30 kts 339°
2026-05-08 17:40 25.26853 51.62113 20 ft 29 kts 329°
2026-05-08 17:40 25.26995 51.61967 20 ft 28 kts 306°
2026-05-08 17:40 25.27099 51.61823 22 ft 15 kts 298°
2026-05-08 17:40 25.27090 51.61725 23 ft 14 kts 251°
2026-05-08 17:41 25.27050 51.61621 22 ft 15 kts 245°
2026-05-08 17:41 25.27009 51.61505 22 ft 17 kts 248°
2026-05-08 17:41 25.26918 51.61429 22 ft 18 kts 202°
2026-05-08 17:41 25.26801 51.61371 22 ft 14 kts 204°
2026-05-08 17:42 25.26789 51.61329 22 ft 6 kts 283°
2026-05-08 17:42 25.26806 51.61282 22 ft 0 kts 293°
2026-05-08 17:42 25.26807 51.61279 22 ft 1 kts 293°
2026-05-08 17:42 25.26809 51.61272 24 ft 0 kts 293°